EW4229 Weather Reports


Display with metric or nautical units.
time (UTC)temp
F
wind
direction
speed
MPH
gust
MPH
rain 1hr
in
rain 24hr
in
rain mn
in
humidity
%
barometer
mb
20260508003004 59 298 0.0 3.0 0.00 0.40 0.40 47 1008.3
20260508001505 60 311 0.0 2.0 0.00 0.40 0.40 42 1008.2
20260508000003 61 309 2.0 4.0 0.00 0.40 0.40 38 1008.2
20260507234508 62 314 2.0 7.0 0.00 0.40 0.40 39 1008.0
20260507233008 62 356 2.0 6.0 0.00 0.40 0.40 38 1007.9
20260507231505 63 321 0.0 6.0 0.00 0.40 0.40 36 1007.7
20260507230013 63 335 1.0 4.0 0.00 0.40 0.40 37 1007.6
20260507224502 63 317 2.0 6.0 0.00 0.40 0.40 37 1007.6
20260507223002 63 276 4.0 9.0 0.00 0.40 0.40 37 1007.5
20260507221559 0 0.0 0.0 0.00 0.40 0.40 1007.5
20260507220056 63 310 3.0 6.0 0.00 0.40 0.40 36 1007.6
20260507214600 64 309 3.0 5.0 0.00 0.40 0.40 37 1007.5
20260507213055 66 354 1.0 6.0 0.00 0.40 0.40 36 1007.7
20260507211601 65 329 3.0 6.0 0.00 0.40 0.40 36 1007.6
20260507210107 64 7 2.0 6.0 0.00 0.40 0.40 39 1007.7
20260507204549 64 326 0.0 8.0 0.00 0.40 0.40 37 1007.9
20260507203045 63 296 3.0 13.0 0.00 0.40 0.40 38 1007.9
20260507201544 64 290 5.0 8.0 0.00 0.40 0.40 39 1008.0
20260507200052 63 313 3.0 9.0 0.00 0.40 0.40 37 1008.1
20260507194550 64 316 3.0 14.0 0.00 0.40 0.40 37 1008.2
20260507193038 63 294 5.0 14.0 0.00 0.40 0.40 49 1008.5
20260507191539 62 292 6.0 13.0 0.00 0.40 0.40 45 1008.6
20260507190044 62 289 4.0 11.0 0.00 0.40 0.40 52 1008.9
20260507184543 62 278 1.0 9.0 0.00 0.40 0.40 48 1009.0
20260507183036 62 292 3.0 10.0 0.00 0.40 0.40 48 1009.2
20260507181529 0 0.0 0.0 0.00 0.40 0.40 1009.2
20260507180026 62 326 0.0 3.0 0.00 0.40 0.40 46 1009.4
20260507174624 60 353 1.0 8.0 0.00 0.40 0.40 40 1009.6
20260507173037 60 294 4.0 8.0 0.00 0.40 0.40 40 1009.9
20260507171518 60 145 1.0 7.0 0.00 0.40 0.40 45 1010.2
20260507170020 59 274 0.0 7.0 0.00 0.40 0.40 44 1010.4
20260507164521 59 255 1.0 9.0 0.00 0.40 0.40 45 1010.6
20260507163017 58 316 0.0 8.0 0.00 0.40 0.40 44 1010.9
20260507161510 58 321 3.0 9.0 0.00 0.40 0.40 47 1011.1
20260507160010 57 301 1.0 9.0 0.00 0.41 0.40 47 1011.2
20260507154511 57 304 1.0 10.0 0.00 0.41 0.40 45 1011.3
20260507153008 57 328 1.0 7.0 0.00 0.41 0.40 50 1011.5
20260507151506 56 339 1.0 11.0 0.00 0.41 0.40 51 1011.8
20260507150003 56 321 2.0 8.0 0.00 0.63 0.40 49 1012.0
20260507144502 0 0.0 0.0 0.00 0.63 0.40 1012.2
20260507143119 55 333 0.0 8.0 0.00 0.63 0.40 53 1012.3
20260507141604 55 24 2.0 8.0 0.00 0.63 0.40 51 1012.6
20260507140057 54 290 0.0 4.0 0.00 0.76 0.40 55 1012.7
20260507134555 53 316 0.0 4.0 0.00 0.76 0.40 59 1012.8
20260507133055 52 319 0.0 5.0 0.00 0.76 0.40 57 1013.0
20260507131601 52 314 2.0 8.0 0.00 0.76 0.40 57 1012.8
20260507130055 52 326 2.0 6.0 0.00 0.81 0.40 58 1012.6
20260507124602 52 27 2.0 6.0 0.00 0.81 0.40 58 1012.7
20260507123053 52 347 0.0 6.0 0.00 0.81 0.40 59 1012.9
20260507121552 52 314 0.0 5.0 0.00 0.81 0.40 61 1012.8
20260507120052 51 298 1.0 4.0 0.00 0.85 0.40 60 1012.8
20260507114606 51 49 0.0 5.0 0.00 0.85 0.40 62 1012.7
20260507113105 50 28 2.0 5.0 0.00 0.85 0.40 60 1012.5
20260507111550 50 302 0.0 3.0 0.00 0.85 0.40 60 1012.5
20260507110045 50 293 1.0 4.0 0.00 0.85 0.40 57 1012.3
20260507104544 50 349 1.0 5.0 0.00 0.85 0.40 57 1012.0
20260507103049 50 333 1.0 5.0 0.00 0.85 0.40 57 1011.7
20260507101542 50 313 1.0 5.0 0.00 0.85 0.40 57 1011.5
20260507100038 50 310 2.0 6.0 0.00 0.85 0.40 56 1011.3
20260507094541 50 316 1.0 5.0 0.00 0.85 0.40 57 1011.3
20260507093036 51 279 1.0 5.0 0.00 0.85 0.40 56 1011.0
20260507091536 0 0.0 0.0 0.00 0.85 0.40 1010.8
20260507090029 51 311 0.0 6.0 0.00 0.85 0.40 64 1010.6
20260507084539 51 329 3.0 9.0 0.00 0.85 0.40 63 1010.6
20260507083027 51 301 4.0 8.0 0.00 0.85 0.40 65 1010.6
20260507081535 52 313 3.0 6.0 0.00 0.85 0.40 66 1010.8
20260507080025 0 0.0 0.0 0.00 0.85 0.40 1010.6
20260507074523 0 0.0 0.0 0.00 0.85 0.40 1010.8
20260507073020 0 0.0 0.0 0.00 0.85 0.40 1010.8
20260507071515 0 0.0 0.0 0.00 0.85 0.40 1010.9
20260507070013 53 293 0.0 3.0 0.00 0.85 0.40 74 1011.0
20260507064509 53 3 0.0 3.0 0.00 0.85 0.40 75 1010.9
20260507063008 53 295 1.0 5.0 0.00 0.85 0.40 79 1010.9
20260507061504 0 0.0 0.0 0.00 0.85 0.40 1010.9
20260507060104 53 338 1.0 4.0 0.00 0.85 0.40 83 1010.8
20260507054500 53 309 1.0 5.0 0.00 0.85 0.40 84 1010.8
20260507053100 53 302 0.0 3.0 0.39 0.85 0.40 85 1010.4
20260507051600 53 321 1.0 5.0 0.40 0.85 0.40 85 1010.6
20260507050058 53 312 2.0 5.0 0.40 0.85 0.40 86 1010.5
20260507044610 53 297 2.0 9.0 0.40 0.85 0.40 86 1010.7
20260507043104 54 353 1.0 4.0 0.40 0.85 0.40 85 1010.6
20260507041556 54 314 6.0 12.0 0.00 0.45 0.00 85 1010.4
20260507040049 55 297 6.0 13.0 0.00 0.45 0.45 82 1010.5
20260507034546 55 311 3.0 7.0 0.00 0.45 0.45 82 1010.2
20260507033045 55 344 1.0 5.0 0.00 0.45 0.45 82 1010.5
20260507031546 0 0.0 0.0 0.00 0.45 0.45 1009.8
20260507030037 57 4 0.0 6.0 0.00 0.45 0.45 80 1010.2
20260507024535 57 160 2.0 8.0 0.00 0.45 0.45 78 1010.1
20260507023035 57 316 3.0 10.0 0.00 0.45 0.45 78 1010.1
20260507021530 58 342 4.0 10.0 0.00 0.45 0.45 79 1009.9
20260507020044 58 312 6.0 13.0 0.00 0.45 0.45 78 1009.7
20260507014531 59 311 4.0 10.0 0.00 0.45 0.45 78 1009.9
20260507013028 59 302 3.0 8.0 0.00 0.45 0.45 77 1010.0
20260507011539 60 281 3.0 11.0 0.00 0.45 0.45 1009.9
20260507010024 0 0.0 0.0 0.00 0.45 0.45 1009.4
20260507004518 60 276 1.0 10.0 0.00 0.45 0.45 79 1009.2